Hourly Weather Kozonkova

Today, 22 October, Thursday

Time Temperature Precipitation Wind Pressure Humidity
00:00 -1°C° 0 mm 3 mps 743 mmHg 83%
01:00 -1°C° 0 mm 3 mps 743 mmHg 83%
02:00 -1°C° 0 mm 3 mps 743 mmHg 83%
03:00 -1°C° 0 mm 3 mps 743 mmHg 82%
04:00 -1°C° 0 mm 3 mps 743 mmHg 81%
05:00 -1°C° 0 mm 3 mps 743 mmHg 82%
06:00 -1°C° 0 mm 3 mps 744 mmHg 83%
07:00 -1°C° 0 mm 3 mps 744 mmHg 84%
08:00 -1°C° 0.1 mm 3 mps 744 mmHg 83%
09:00 -1°C° 0.1 mm 4 mps 744 mmHg 81%
10:00 -1°C° 0.1 mm 5 mps 744 mmHg 80%
11:00 -1°C° 0 mm 5 mps 744 mmHg 75%
12:00 -1°C° 0 mm 5 mps 745 mmHg 70%
13:00 -1°C° 0 mm 5 mps 745 mmHg 65%
14:00 -1°C° 0 mm 5 mps 745 mmHg 67%
15:00 -1°C° 0 mm 4 mps 746 mmHg 69%
16:00 0°C° 0 mm 3 mps 746 mmHg 71%
17:00 -2°C° 0 mm 4 mps 746 mmHg 73%
18:00 -2°C° 0 mm 4 mps 746 mmHg 74%
19:00 -3°C° 0 mm 4 mps 747 mmHg 76%
20:00 -3°C° 0 mm 4 mps 747 mmHg 75%
21:00 -3°C° 0 mm 4 mps 747 mmHg 75%
22:00 -4°C° 0 mm 4 mps 748 mmHg 75%
23:00 -4°C° 0 mm 4 mps 748 mmHg 76%

Tomorrow, 23 October, Friday

Time Temperature Precipitation Wind Pressure Humidity
00:00 -4°C° 0 mm 4 mps 748 mmHg 76%
01:00 -4°C° 0 mm 4 mps 748 mmHg 77%
02:00 -4°C° 0 mm 4 mps 749 mmHg 77%
03:00 -5°C° 0 mm 4 mps 750 mmHg 77%
04:00 -5°C° 0 mm 4 mps 750 mmHg 77%
05:00 -5°C° 0 mm 4 mps 750 mmHg 77%
06:00 -5°C° 0 mm 4 mps 751 mmHg 76%
07:00 -7°C° 0 mm 4 mps 751 mmHg 75%
08:00 -5°C° 0 mm 4 mps 752 mmHg 72%
09:00 -5°C° 0 mm 4 mps 752 mmHg 68%
10:00 -4°C° 0 mm 3 mps 752 mmHg 65%
11:00 -4°C° 0 mm 3 mps 752 mmHg 61%
12:00 -2°C° 0 mm 3 mps 753 mmHg 58%
13:00 -2°C° 0 mm 3 mps 753 mmHg 55%
14:00 -2°C° 0 mm 2 mps 753 mmHg 57%
15:00 -3°C° 0 mm 2 mps 753 mmHg 60%
16:00 -1°C° 0 mm 1 mps 753 mmHg 62%
17:00 -1°C° 0 mm 1 mps 754 mmHg 64%
18:00 -1°C° 0 mm 1 mps 754 mmHg 66%
19:00 -2°C° 0 mm 1 mps 754 mmHg 68%
20:00 -2°C° 0 mm 1 mps 754 mmHg 68%
21:00 -4°C° 0 mm 2 mps 754 mmHg 69%
22:00 -4°C° 0 mm 2 mps 754 mmHg 69%
23:00 -4°C° 0 mm 2 mps 754 mmHg 71%

Day after tomorrow, 24 October, Saturday

Time Temperature Precipitation Wind Pressure Humidity
00:00 -4°C° 0 mm 2 mps 754 mmHg 72%
01:00 -4°C° 0 mm 2 mps 753 mmHg 73%
02:00 -5°C° 0 mm 2 mps 753 mmHg 74%
03:00 -6°C° 0 mm 3 mps 753 mmHg 75%
04:00 -6°C° 0 mm 3 mps 753 mmHg 76%
05:00 -5°C° 0 mm 4 mps 752 mmHg 73%
06:00 -5°C° 0 mm 4 mps 752 mmHg 70%
07:00 -6°C° 0 mm 5 mps 751 mmHg 67%
08:00 -5°C° 0 mm 5 mps 750 mmHg 72%
09:00 -5°C° 0 mm 6 mps 750 mmHg 76%
10:00 -4°C° 0 mm 6 mps 749 mmHg 80%
11:00 -4°C° 0.3 mm 6 mps 749 mmHg 84%
12:00 -3°C° 0.3 mm 6 mps 748 mmHg 89%
13:00 -3°C° 0.3 mm 6 mps 747 mmHg 93%
14:00 -3°C° 0.4 mm 6 mps 747 mmHg 94%
15:00 -2°C° 0.4 mm 6 mps 746 mmHg 96%
16:00 -1°C° 0.4 mm 5 mps 745 mmHg 97%
17:00 -1°C° 0.3 mm 5 mps 745 mmHg 97%
18:00 0°C° 0.3 mm 4 mps 744 mmHg 97%
19:00 0°C° 0.3 mm 4 mps 744 mmHg 97%
20:00 +1°C° 0.6 mm 3 mps 744 mmHg 97%
21:00 +1°C° 0.6 mm 3 mps 744 mmHg 98%
22:00 +2°C° 0.6 mm 2 mps 743 mmHg 98%
23:00 +2°C° 0.1 mm 2 mps 743 mmHg 98%

, 25 October, Sunday

Time Temperature Precipitation Wind Pressure Humidity
00:00 +3°C° 0.1 mm 1 mps 743 mmHg 98%
01:00 +3°C° 0.1 mm 1 mps 743 mmHg 98%
02:00 +3°C° 0 mm 1 mps 743 mmHg 98%
03:00 +2°C° 0 mm 2 mps 744 mmHg 98%
04:00 +2°C° 0 mm 2 mps 744 mmHg 97%
05:00 +2°C° 0 mm 2 mps 745 mmHg 97%
06:00 +1°C° 0 mm 2 mps 745 mmHg 97%
07:00 +1°C° 0 mm 2 mps 745 mmHg 97%
08:00 +2°C° 0 mm 2 mps 746 mmHg 95%
09:00 +2°C° 0 mm 2 mps 746 mmHg 94%
10:00 +3°C° 0 mm 2 mps 746 mmHg 92%
11:00 +3°C° 0 mm 2 mps 747 mmHg 92%
12:00 +4°C° 0 mm 1 mps 747 mmHg 92%
13:00 +4°C° 0 mm 1 mps 747 mmHg 92%
14:00 +4°C° 0 mm 1 mps 747 mmHg 93%
15:00 +4°C° 0 mm 1 mps 748 mmHg 94%
16:00 +3°C° 0 mm 2 mps 748 mmHg 95%
17:00 +4°C° 0 mm 1 mps 748 mmHg 95%
18:00 +4°C° 0 mm 1 mps 748 mmHg 95%
19:00 +4°C° 0 mm 1 mps 748 mmHg 95%
20:00 +4°C° 0 mm 1 mps 748 mmHg 95%
21:00 +4°C° 0 mm 1 mps 748 mmHg 95%
22:00 +4°C° 0 mm 1 mps 748 mmHg 94%
23:00 +3°C° 0 mm 2 mps 748 mmHg 95%

25 October, Sunday

Time Temperature Precipitation Wind Pressure Humidity
00:00 +3°C° 0.1 mm 1 mps 743 mmHg 98%
01:00 +3°C° 0.1 mm 1 mps 743 mmHg 98%
02:00 +3°C° 0 mm 1 mps 743 mmHg 98%
03:00 +2°C° 0 mm 2 mps 744 mmHg 98%
04:00 +2°C° 0 mm 2 mps 744 mmHg 97%
05:00 +2°C° 0 mm 2 mps 745 mmHg 97%
06:00 +1°C° 0 mm 2 mps 745 mmHg 97%
07:00 +1°C° 0 mm 2 mps 745 mmHg 97%
08:00 +2°C° 0 mm 2 mps 746 mmHg 95%
09:00 +2°C° 0 mm 2 mps 746 mmHg 94%
10:00 +3°C° 0 mm 2 mps 746 mmHg 92%
11:00 +3°C° 0 mm 2 mps 747 mmHg 92%
12:00 +4°C° 0 mm 1 mps 747 mmHg 92%
13:00 +4°C° 0 mm 1 mps 747 mmHg 92%
14:00 +4°C° 0 mm 1 mps 747 mmHg 93%
15:00 +4°C° 0 mm 1 mps 748 mmHg 94%
16:00 +3°C° 0 mm 2 mps 748 mmHg 95%
17:00 +4°C° 0 mm 1 mps 748 mmHg 95%
18:00 +4°C° 0 mm 1 mps 748 mmHg 95%
19:00 +4°C° 0 mm 1 mps 748 mmHg 95%
20:00 +4°C° 0 mm 1 mps 748 mmHg 95%
21:00 +4°C° 0 mm 1 mps 748 mmHg 95%
22:00 +4°C° 0 mm 1 mps 748 mmHg 94%
23:00 +3°C° 0 mm 2 mps 748 mmHg 95%

26 October, Monday

Time Temperature Precipitation Wind Pressure Humidity
00:00 +3°C° 0 mm 2 mps 748 mmHg 95%
01:00 +3°C° 0 mm 2 mps 748 mmHg 96%
02:00 +3°C° 0.1 mm 2 mps 747 mmHg 96%
03:00 +3°C° 0.1 mm 2 mps 747 mmHg 97%
04:00 +3°C° 0.1 mm 2 mps 746 mmHg 97%
05:00 +3°C° 0.7 mm 2 mps 746 mmHg 98%
06:00 +4°C° 0.7 mm 2 mps 746 mmHg 98%
07:00 +5°C° 0.7 mm 1 mps 745 mmHg 98%
08:00 +4°C° 0.3 mm 2 mps 745 mmHg 98%
09:00 +4°C° 0.3 mm 2 mps 744 mmHg 97%
10:00 +5°C° 0.3 mm 2 mps 744 mmHg 97%
11:00 +5°C° 0.2 mm 2 mps 743 mmHg 97%
12:00 +5°C° 0.2 mm 2 mps 743 mmHg 97%
13:00 +5°C° 0.2 mm 2 mps 742 mmHg 97%
14:00 +4°C° 1.5 mm 3 mps 741 mmHg 97%
15:00 +4°C° 1.5 mm 3 mps 741 mmHg 97%
16:00 +4°C° 1.5 mm 4 mps 740 mmHg 97%
17:00 +3°C° 2.2 mm 5 mps 739 mmHg 97%
18:00 +3°C° 2.2 mm 5 mps 739 mmHg 97%
19:00 +3°C° 2.2 mm 6 mps 738 mmHg 96%
20:00 +3°C° 1.8 mm 6 mps 738 mmHg 96%
21:00 +3°C° 1.8 mm 7 mps 737 mmHg 95%
22:00 +3°C° 1.8 mm 7 mps 737 mmHg 95%
23:00 +2°C° 2.9 mm 8 mps 737 mmHg 94%

27 October, Tuesday

Time Temperature Precipitation Wind Pressure Humidity
00:00 +2°C° 2.9 mm 9 mps 737 mmHg 94%
01:00 +2°C° 2.9 mm 9 mps 737 mmHg 93%
02:00 +2°C° 2.7 mm 10 mps 738 mmHg 93%
03:00 +2°C° 2.7 mm 10 mps 738 mmHg 92%
04:00 +2°C° 2.7 mm 11 mps 739 mmHg 92%
05:00 +2°C° 0.7 mm 11 mps 740 mmHg 91%
06:00 +1°C° 0.7 mm 10 mps 741 mmHg 91%
07:00 +1°C° 0.7 mm 10 mps 742 mmHg 90%
08:00 +1°C° 0.1 mm 10 mps 743 mmHg 91%
09:00 0°C° 0.1 mm 10 mps 744 mmHg 92%
10:00 -2°C° 0.1 mm 10 mps 745 mmHg 93%
11:00 -2°C° 0.1 mm 10 mps 746 mmHg 94%
12:00 -1°C° 0.1 mm 9 mps 747 mmHg 94%
13:00 -3°C° 0.1 mm 9 mps 748 mmHg 95%
14:00 -3°C° 0.2 mm 9 mps 749 mmHg 95%
15:00 -2°C° 0.2 mm 8 mps 750 mmHg 95%
16:00 -2°C° 0.2 mm 8 mps 750 mmHg 96%
17:00 -2°C° 0.1 mm 8 mps 751 mmHg 95%
18:00 -2°C° 0.1 mm 8 mps 752 mmHg 95%
19:00 -4°C° 0.1 mm 8 mps 753 mmHg 94%
20:00 -4°C° 0 mm 8 mps 753 mmHg 92%
21:00 -3°C° 0 mm 7 mps 754 mmHg 90%
22:00 -3°C° 0 mm 7 mps 754 mmHg 88%
23:00 -3°C° 0 mm 7 mps 755 mmHg 88%
Show more